When you browse on this site, cookies collect data to enhance your experience and personalize the content and advertising you see.
Visit our Privacy Policy to learn more. By continuing to use the site, you agree to this use of cookies and data.
  • In Hungary
  • List of Countries
  • For 7 days
  • Water Temperature
  • Weather Map
  • News
  • Weather Widgets
  • user-avatar
    Login

    Hourly Weather Tavrivka

    Today, 21 November, Thursday

    Time Temperature Precipitation Wind Pressure Humidity
    00:00 +1°C° 0 mm 6 mps 760 mmHg 66%
    01:00 0°C° 0 mm 7 mps 760 mmHg 65%
    02:00 0°C° 0 mm 7 mps 760 mmHg 65%
    03:00 -1°C° 0 mm 7 mps 760 mmHg 67%
    04:00 -3°C° 0 mm 7 mps 760 mmHg 69%
    05:00 -4°C° 0 mm 7 mps 760 mmHg 71%
    06:00 -6°C° 0 mm 7 mps 761 mmHg 69%
    07:00 -6°C° 0 mm 7 mps 761 mmHg 67%
    08:00 -7°C° 0 mm 7 mps 762 mmHg 65%
    09:00 -6°C° 0 mm 7 mps 762 mmHg 59%
    10:00 -6°C° 0 mm 7 mps 762 mmHg 54%
    11:00 -4°C° 0 mm 7 mps 762 mmHg 48%
    12:00 -4°C° 0 mm 7 mps 762 mmHg 46%
    13:00 -4°C° 0 mm 7 mps 762 mmHg 43%
    14:00 -4°C° 0 mm 7 mps 762 mmHg 41%
    15:00 -4°C° 0 mm 7 mps 762 mmHg 41%
    16:00 -6°C° 0 mm 7 mps 762 mmHg 41%
    17:00 -6°C° 0 mm 6 mps 762 mmHg 42%
    18:00 -8°C° 0 mm 7 mps 762 mmHg 40%
    19:00 -8°C° 0 mm 7 mps 762 mmHg 39%
    20:00 -9°C° 0 mm 7 mps 762 mmHg 38%
    21:00 -9°C° 0 mm 7 mps 762 mmHg 36%
    22:00 -11°C° 0 mm 7 mps 763 mmHg 34%
    23:00 -10°C° 0 mm 6 mps 763 mmHg 31%

    Tomorrow, 22 November, Friday

    Time Temperature Precipitation Wind Pressure Humidity
    00:00 -10°C° 0 mm 6 mps 763 mmHg 32%
    01:00 -10°C° 0 mm 6 mps 763 mmHg 33%
    02:00 -11°C° 0 mm 6 mps 763 mmHg 34%
    03:00 -11°C° 0 mm 6 mps 762 mmHg 35%
    04:00 -11°C° 0 mm 6 mps 762 mmHg 36%
    05:00 -13°C° 0 mm 7 mps 762 mmHg 38%
    06:00 -13°C° 0 mm 7 mps 762 mmHg 39%
    07:00 -13°C° 0 mm 7 mps 762 mmHg 40%
    08:00 -12°C° 0 mm 7 mps 762 mmHg 41%
    09:00 -11°C° 0 mm 7 mps 762 mmHg 38%
    10:00 -9°C° 0 mm 7 mps 762 mmHg 35%
    11:00 -8°C° 0 mm 7 mps 762 mmHg 32%
    12:00 -7°C° 0 mm 7 mps 761 mmHg 30%
    13:00 -6°C° 0 mm 7 mps 761 mmHg 29%
    14:00 -6°C° 0 mm 7 mps 761 mmHg 28%
    15:00 -7°C° 0 mm 7 mps 761 mmHg 31%
    16:00 -6°C° 0 mm 6 mps 761 mmHg 33%
    17:00 -7°C° 0 mm 5 mps 760 mmHg 36%
    18:00 -8°C° 0 mm 6 mps 761 mmHg 38%
    19:00 -9°C° 0 mm 6 mps 761 mmHg 40%
    20:00 -9°C° 0 mm 6 mps 761 mmHg 42%
    21:00 -8°C° 0 mm 5 mps 761 mmHg 43%
    22:00 -8°C° 0 mm 5 mps 761 mmHg 44%
    23:00 -8°C° 0 mm 5 mps 761 mmHg 45%

    Day after tomorrow, 23 November, Saturday

    Time Temperature Precipitation Wind Pressure Humidity
    00:00 -10°C° 0 mm 5 mps 761 mmHg 46%
    01:00 -10°C° 0 mm 5 mps 761 mmHg 47%
    02:00 -10°C° 0 mm 5 mps 761 mmHg 48%
    03:00 -10°C° 0 mm 5 mps 760 mmHg 48%
    04:00 -11°C° 0 mm 5 mps 760 mmHg 48%
    05:00 -11°C° 0 mm 5 mps 760 mmHg 49%
    06:00 -11°C° 0 mm 5 mps 760 mmHg 48%
    07:00 -10°C° 0 mm 5 mps 760 mmHg 46%
    08:00 -10°C° 0 mm 5 mps 760 mmHg 45%
    09:00 -9°C° 0 mm 6 mps 760 mmHg 41%
    10:00 -8°C° 0 mm 6 mps 760 mmHg 36%
    11:00 -5°C° 0 mm 6 mps 760 mmHg 32%
    12:00 -4°C° 0 mm 6 mps 759 mmHg 30%
    13:00 -4°C° 0 mm 6 mps 759 mmHg 29%
    14:00 -3°C° 0 mm 6 mps 758 mmHg 28%
    15:00 -4°C° 0 mm 5 mps 758 mmHg 30%
    16:00 -5°C° 0 mm 5 mps 758 mmHg 33%
    17:00 -5°C° 0 mm 4 mps 758 mmHg 36%
    18:00 -5°C° 0 mm 4 mps 758 mmHg 36%
    19:00 -7°C° 0 mm 5 mps 758 mmHg 37%
    20:00 -7°C° 0 mm 5 mps 758 mmHg 37%
    21:00 -7°C° 0 mm 5 mps 758 mmHg 38%
    22:00 -7°C° 0 mm 5 mps 758 mmHg 38%
    23:00 -7°C° 0 mm 5 mps 758 mmHg 39%

    24 November, Sunday

    Time Temperature Precipitation Wind Pressure Humidity
    00:00 -8°C° 0 mm 4 mps 758 mmHg 40%
    01:00 -8°C° 0 mm 4 mps 758 mmHg 41%
    02:00 -8°C° 0 mm 4 mps 758 mmHg 42%
    03:00 -8°C° 0 mm 4 mps 758 mmHg 43%
    04:00 -8°C° 0 mm 4 mps 758 mmHg 44%
    05:00 -9°C° 0 mm 4 mps 758 mmHg 45%
    06:00 -9°C° 0 mm 4 mps 758 mmHg 45%
    07:00 -8°C° 0 mm 4 mps 758 mmHg 45%
    08:00 -8°C° 0 mm 5 mps 758 mmHg 45%
    09:00 -7°C° 0 mm 5 mps 758 mmHg 44%
    10:00 -5°C° 0 mm 5 mps 758 mmHg 42%
    11:00 -4°C° 0 mm 5 mps 757 mmHg 41%
    12:00 -2°C° 0 mm 5 mps 757 mmHg 41%
    13:00 -2°C° 0 mm 5 mps 757 mmHg 42%
    14:00 -1°C° 0 mm 5 mps 756 mmHg 42%
    15:00 -2°C° 0 mm 5 mps 756 mmHg 47%
    16:00 -3°C° 0 mm 4 mps 756 mmHg 52%
    17:00 -4°C° 0 mm 3 mps 756 mmHg 57%
    18:00 -5°C° 0 mm 4 mps 756 mmHg 56%
    19:00 -5°C° 0 mm 4 mps 756 mmHg 56%
    20:00 -5°C° 0 mm 4 mps 756 mmHg 55%
    21:00 -5°C° 0 mm 4 mps 756 mmHg 55%
    22:00 -5°C° 0 mm 4 mps 756 mmHg 56%
    23:00 -7°C° 0 mm 4 mps 756 mmHg 57%

    25 November, Monday

    Time Temperature Precipitation Wind Pressure Humidity
    00:00 -7°C° 0 mm 4 mps 755 mmHg 58%
    01:00 -7°C° 0 mm 4 mps 755 mmHg 60%
    02:00 -7°C° 0 mm 4 mps 755 mmHg 61%
    03:00 -7°C° 0 mm 4 mps 755 mmHg 62%
    04:00 -7°C° 0 mm 4 mps 755 mmHg 64%
    05:00 -7°C° 0 mm 4 mps 755 mmHg 65%
    06:00 -7°C° 0 mm 4 mps 755 mmHg 67%
    07:00 -7°C° 0 mm 4 mps 755 mmHg 69%
    08:00 -7°C° 0 mm 4 mps 755 mmHg 70%
    09:00 -5°C° 0 mm 4 mps 755 mmHg 68%
    10:00 -4°C° 0 mm 4 mps 755 mmHg 65%
    11:00 -3°C° 0 mm 4 mps 754 mmHg 62%
    12:00 -2°C° 0 mm 4 mps 754 mmHg 62%
    13:00 -2°C° 0 mm 4 mps 754 mmHg 61%
    14:00 -1°C° 0 mm 4 mps 753 mmHg 61%
    15:00 -1°C° 0 mm 3 mps 753 mmHg 66%
    16:00 -2°C° 0 mm 3 mps 753 mmHg 71%
    17:00 -3°C° 0 mm 2 mps 753 mmHg 77%
    18:00 -2°C° 0 mm 2 mps 753 mmHg 77%
    19:00 -2°C° 0 mm 2 mps 753 mmHg 78%
    20:00 -2°C° 0 mm 3 mps 753 mmHg 79%
    21:00 -2°C° 0 mm 3 mps 753 mmHg 78%
    22:00 -2°C° 0 mm 3 mps 753 mmHg 77%
    23:00 -3°C° 0 mm 4 mps 753 mmHg 76%

    26 November, Tuesday

    Time Temperature Precipitation Wind Pressure Humidity
    00:00 -3°C° 0 mm 4 mps 752 mmHg 78%
    01:00 -3°C° 0 mm 4 mps 752 mmHg 80%
    02:00 -3°C° 0 mm 4 mps 752 mmHg 82%
    03:00 -3°C° 0.1 mm 4 mps 752 mmHg 83%
    04:00 -3°C° 0.1 mm 4 mps 752 mmHg 84%
    05:00 -4°C° 0.1 mm 4 mps 751 mmHg 85%
    06:00 -4°C° 0 mm 4 mps 751 mmHg 82%
    07:00 -3°C° 0 mm 4 mps 751 mmHg 78%
    08:00 -2°C° 0 mm 3 mps 751 mmHg 75%
    09:00 -2°C° 0 mm 3 mps 751 mmHg 73%
    10:00 -2°C° 0 mm 3 mps 751 mmHg 71%
    11:00 -1°C° 0 mm 3 mps 751 mmHg 69%
    12:00 -1°C° 0 mm 3 mps 751 mmHg 67%
    13:00 -1°C° 0 mm 3 mps 751 mmHg 66%
    14:00 0°C° 0 mm 3 mps 750 mmHg 65%
    15:00 0°C° 0 mm 3 mps 750 mmHg 66%
    16:00 0°C° 0 mm 3 mps 750 mmHg 68%
    17:00 -1°C° 0 mm 3 mps 750 mmHg 69%
    18:00 0°C° 0.1 mm 3 mps 750 mmHg 71%
    19:00 0°C° 0.1 mm 3 mps 750 mmHg 73%
    20:00 +1°C° 0.1 mm 2 mps 750 mmHg 74%
    21:00 +1°C° 0.1 mm 2 mps 750 mmHg 76%
    22:00 +1°C° 0.1 mm 2 mps 750 mmHg 77%
    23:00 +1°C° 0.1 mm 2 mps 750 mmHg 78%
    Show more